Location: Kumla
(59.1265°N, 15.1401°E)
Time: 15:45:50
(UTC+01:00)

Transit 2A - Pass Details

Date: 10 December 2023
Orbit: 600 x 953 km, 66.7° (Epoch: 21 February)

Event Time Altitude Azimuth Distance (km) Brightness Sun altitude
Rises 00:01:22 0° 305° (NW) 2,864 - -53.7°
Reaches altitude 10° 00:04:44 10° 277° (W) 1,951 - -53.7°
Maximum altitude 00:06:42 13° 250° (WSW) 1,766 - -53.6°
Drops below altitude 10° 00:08:41 10° 223° (SW) 1,964 - -53.6°
Sets 00:12:06 0° 195° (SSW) 2,901 - -53.6°
